GEFSNGP_prec_meanprecacc_090.txt.gz
Total_Precipitation_Accumulation
0.46 0.35 0.37 0.33 0.24 0.31 0.51 0.49 0.44 0.21 0.15 0.15 0.15 0.14 0.12 0.12 0.10 0.08 0.07 0.05 0.04 0.04 0.04 0.04 0.04 0.04 0.04 0.04 0.05 0.07 0.08 0.08 0.08 0.08 0.09 0.09 0.10 0.10 0.09 0.08 0.07 0.07 0.08 0.08
0.47 0.29 0.28 0.29 0.22 0.26 0.32 0.31 0.34 0.26 0.22 0.14 0.14 0.14 0.13 0.13 0.11 0.08 0.06 0.05 0.04 0.04 0.05 0.04 0.04 0.04 0.04 0.05 0.06 0.07 0.09 0.10 0.10 0.10 0.11 0.11 0.12 0.11 0.11 0.12 0.13 0.13 0.14 0.15
0.40 0.21 0.28 0.32 0.25 0.27 0.28 0.25 0.28 0.28 0.21 0.13 0.14 0.14 0.13 0.12 0.10 0.07 0.05 0.04 0.03 0.03 0.04 0.04 0.04 0.05 0.06 0.07 0.08 0.10 0.11 0.12 0.13 0.16 0.17 0.15 0.16 0.18 0.19 0.20 0.23 0.28 0.30 0.30
0.36 0.26 0.30 0.20 0.16 0.20 0.21 0.21 0.21 0.19 0.13 0.10 0.12 0.14 0.12 0.11 0.10 0.07 0.04 0.03 0.02 0.02 0.03 0.03 0.03 0.03 0.04 0.06 0.08 0.13 0.17 0.19 0.19 0.20 0.24 0.25 0.25 0.28 0.29 0.32 0.38 0.44 0.46 0.45
0.36 0.29 0.16 0.10 0.09 0.13 0.19 0.20 0.13 0.10 0.09 0.07 0.09 0.10 0.09 0.08 0.08 0.08 0.06 0.05 0.03 0.03 0.04 0.03 0.04 0.05 0.05 0.06 0.09 0.15 0.20 0.23 0.23 0.25 0.28 0.32 0.37 0.41 0.40 0.40 0.43 0.44 0.41 0.37
0.35 0.28 0.13 0.07 0.04 0.06 0.14 0.22 0.08 0.06 0.06 0.05 0.06 0.09 0.09 0.08 0.07 0.06 0.07 0.08 0.07 0.07 0.07 0.07 0.08 0.11 0.12 0.13 0.16 0.19 0.20 0.24 0.25 0.27 0.32 0.36 0.40 0.45 0.47 0.43 0.38 0.33 0.27 0.22
0.27 0.23 0.06 0.03 0.02 0.03 0.15 0.21 0.06 0.05 0.04 0.04 0.05 0.05 0.06 0.05 0.05 0.05 0.06 0.08 0.10 0.13 0.15 0.16 0.18 0.20 0.21 0.22 0.23 0.24 0.25 0.28 0.30 0.31 0.34 0.36 0.38 0.37 0.35 0.30 0.24 0.18 0.13 0.10
0.13 0.16 0.06 0.03 0.04 0.05 0.08 0.06 0.04 0.05 0.05 0.07 0.09 0.08 0.07 0.05 0.04 0.05 0.07 0.10 0.12 0.15 0.18 0.21 0.23 0.25 0.26 0.28 0.28 0.28 0.28 0.29 0.30 0.30 0.27 0.24 0.22 0.21 0.18 0.13 0.10 0.07 0.04 0.03
0.06 0.05 0.03 0.03 0.03 0.04 0.05 0.04 0.04 0.04 0.04 0.06 0.12 0.12 0.10 0.09 0.06 0.06 0.07 0.09 0.11 0.12 0.13 0.14 0.18 0.23 0.26 0.27 0.26 0.24 0.23 0.23 0.21 0.18 0.15 0.12 0.09 0.07 0.06 0.04 0.03 0.03 0.02 0.01
0.07 0.04 0.03 0.02 0.03 0.02 0.02 0.03 0.04 0.05 0.06 0.07 0.09 0.12 0.12 0.11 0.09 0.08 0.08 0.06 0.07 0.08 0.08 0.09 0.10 0.13 0.14 0.15 0.14 0.13 0.12 0.11 0.09 0.07 0.06 0.04 0.03 0.02 0.01 0.01 0.01 0.01 0.01 0.01
0.06 0.03 0.03 0.03 0.02 0.02 0.02 0.02 0.04 0.05 0.05 0.06 0.06 0.08 0.11 0.10 0.08 0.08 0.07 0.05 0.04 0.04 0.04 0.04 0.04 0.04 0.05 0.05 0.04 0.04 0.04 0.03 0.02 0.02 0.02 0.02 0.01 0.01 0.01 0.00 0.00 0.01 0.01 0.01
0.07 0.04 0.05 0.05 0.03 0.02 0.02 0.02 0.02 0.04 0.04 0.03 0.04 0.07 0.08 0.07 0.05 0.06 0.07 0.06 0.03 0.02 0.02 0.02 0.02 0.02 0.02 0.02 0.01 0.01 0.01 0.01 0.01 0.01 0.01 0.01 0.01 0.01 0.01 0.01 0.01 0.00 0.01 0.02
0.07 0.04 0.04 0.03 0.02 0.02 0.01 0.01 0.01 0.02 0.02 0.02 0.02 0.04 0.05 0.05 0.05 0.04 0.04 0.03 0.02 0.02 0.02 0.02 0.02 0.02 0.02 0.01 0.01 0.01 0.01 0.00 0.00 0.00 0.00 0.01 0.01 0.01 0.01 0.00 0.00 0.00 0.00 0.01
0.04 0.03 0.02 0.02 0.02 0.02 0.02 0.01 0.01 0.01 0.01 0.01 0.01 0.02 0.03 0.05 0.05 0.06 0.05 0.04 0.04 0.03 0.02 0.02 0.02 0.01 0.01 0.01 0.01 0.01 0.01 0.01 0.01 0.01 0.01 0.01 0.01 0.01 0.01 0.01 0.01 0.00 0.00 0.00
0.03 0.03 0.03 0.02 0.02 0.02 0.02 0.02 0.01 0.01 0.01 0.01 0.01 0.02 0.03 0.04 0.06 0.07 0.06 0.05 0.04 0.04 0.03 0.03 0.02 0.01 0.01 0.01 0.01 0.01 0.01 0.01 0.01 0.01 0.01 0.01 0.01 0.01 0.01 0.01 0.01 0.01 0.01 0.00
0.04 0.04 0.04 0.03 0.02 0.02 0.03 0.03 0.02 0.02 0.02 0.01 0.01 0.02 0.03 0.04 0.06 0.07 0.06 0.05 0.04 0.04 0.03 0.03 0.02 0.02 0.02 0.01 0.01 0.01 0.01 0.02 0.02 0.02 0.01 0.02 0.01 0.01 0.02 0.02 0.02 0.02 0.01 0.01
0.05 0.05 0.04 0.04 0.03 0.03 0.03 0.03 0.02 0.02 0.01 0.01 0.01 0.02 0.03 0.04 0.05 0.06 0.07 0.05 0.04 0.04 0.04 0.04 0.03 0.03 0.03 0.03 0.03 0.03 0.03 0.03 0.04 0.03 0.02 0.02 0.02 0.02 0.03 0.03 0.03 0.03 0.02 0.02
0.05 0.06 0.06 0.06 0.06 0.05 0.04 0.04 0.03 0.02 0.02 0.02 0.02 0.02 0.03 0.04 0.05 0.06 0.07 0.07 0.06 0.05 0.05 0.04 0.04 0.04 0.04 0.04 0.04 0.04 0.04 0.04 0.04 0.04 0.03 0.03 0.04 0.04 0.04 0.04 0.03 0.03 0.02 0.03
0.07 0.08 0.08 0.07 0.07 0.06 0.06 0.05 0.05 0.04 0.03 0.03 0.03 0.03 0.03 0.04 0.05 0.06 0.07 0.08 0.07 0.07 0.07 0.07 0.09 0.07 0.06 0.07 0.08 0.06 0.06 0.06 0.06 0.06 0.06 0.06 0.06 0.04 0.04 0.04 0.03 0.04 0.04 0.04
0.10 0.11 0.12 0.11 0.09 0.08 0.07 0.06 0.05 0.04 0.04 0.04 0.04 0.04 0.04 0.05 0.05 0.06 0.07 0.08 0.08 0.09 0.11 0.11 0.11 0.09 0.08 0.09 0.12 0.08 0.07 0.07 0.08 0.09 0.09 0.08 0.07 0.06 0.05 0.05 0.05 0.05 0.04 0.04
0.13 0.14 0.14 0.14 0.13 0.11 0.10 0.09 0.07 0.06 0.05 0.05 0.05 0.05 0.05 0.06 0.06 0.06 0.07 0.08 0.09 0.10 0.10 0.13 0.12 0.10 0.10 0.12 0.15 0.11 0.09 0.10 0.10 0.10 0.10 0.09 0.09 0.09 0.08 0.07 0.07 0.06 0.06 0.06
0.14 0.14 0.15 0.15 0.14 0.13 0.11 0.09 0.08 0.08 0.08 0.08 0.07 0.06 0.06 0.07 0.07 0.07 0.07 0.08 0.09 0.11 0.10 0.09 0.09 0.11 0.15 0.17 0.14 0.11 0.11 0.12 0.12 0.12 0.12 0.11 0.11 0.11 0.10 0.10 0.10 0.09 0.09 0.08
0.13 0.12 0.12 0.12 0.12 0.11 0.11 0.10 0.09 0.09 0.08 0.08 0.08 0.07 0.07 0.07 0.07 0.07 0.07 0.08 0.08 0.09 0.08 0.07 0.10 0.13 0.16 0.15 0.12 0.11 0.12 0.13 0.13 0.12 0.12 0.12 0.12 0.13 0.13 0.13 0.12 0.11 0.10 0.10
0.10 0.10 0.09 0.09 0.09 0.08 0.09 0.10 0.10 0.09 0.08 0.08 0.07 0.07 0.06 0.06 0.07 0.07 0.06 0.07 0.08 0.09 0.07 0.08 0.11 0.12 0.13 0.11 0.10 0.12 0.13 0.13 0.14 0.13 0.13 0.14 0.14 0.14 0.14 0.13 0.12 0.10 0.10 0.10
0.07 0.07 0.07 0.07 0.07 0.06 0.07 0.08 0.09 0.08 0.08 0.07 0.07 0.06 0.06 0.06 0.06 0.07 0.06 0.06 0.07 0.08 0.07 0.08 0.10 0.11 0.11 0.09 0.10 0.11 0.12 0.12 0.13 0.13 0.13 0.13 0.13 0.13 0.12 0.12 0.12 0.11 0.10 0.09
0.05 0.04 0.04 0.05 0.05 0.05 0.06 0.08 0.09 0.08 0.07 0.08 0.08 0.07 0.06 0.06 0.06 0.06 0.06 0.07 0.08 0.08 0.07 0.07 0.09 0.10 0.10 0.09 0.10 0.11 0.11 0.11 0.12 0.11 0.10 0.11 0.12 0.12 0.11 0.10 0.09 0.09 0.09 0.08
0.03 0.02 0.02 0.03 0.05 0.05 0.05 0.06 0.08 0.10 0.09 0.08 0.08 0.08 0.07 0.07 0.07 0.07 0.08 0.08 0.08 0.08 0.08 0.08 0.08 0.09 0.09 0.09 0.10 0.10 0.09 0.09 0.09 0.10 0.10 0.11 0.11 0.11 0.10 0.09 0.09 0.08 0.08 0.07

GEFSNGP_prec_meanprecacc_096.txt.gz
Total_Precipitation_Accumulation
0.48 0.37 0.39 0.37 0.27 0.33 0.55 0.52 0.47 0.23 0.15 0.16 0.15 0.15 0.12 0.12 0.10 0.08 0.07 0.05 0.04 0.04 0.04 0.04 0.04 0.04 0.04 0.04 0.06 0.07 0.08 0.08 0.08 0.08 0.09 0.10 0.10 0.10 0.09 0.08 0.07 0.07 0.08 0.08
0.50 0.30 0.29 0.31 0.23 0.27 0.34 0.33 0.35 0.27 0.22 0.14 0.14 0.14 0.14 0.13 0.11 0.08 0.07 0.05 0.04 0.04 0.05 0.04 0.04 0.04 0.04 0.05 0.06 0.07 0.09 0.10 0.10 0.10 0.11 0.11 0.12 0.11 0.11 0.12 0.13 0.13 0.14 0.15
0.44 0.24 0.31 0.34 0.26 0.29 0.29 0.26 0.29 0.30 0.22 0.13 0.15 0.15 0.14 0.13 0.10 0.07 0.05 0.04 0.03 0.03 0.04 0.04 0.04 0.05 0.06 0.07 0.08 0.10 0.11 0.12 0.13 0.16 0.17 0.15 0.16 0.18 0.19 0.20 0.23 0.28 0.30 0.30
0.44 0.31 0.35 0.22 0.16 0.21 0.22 0.22 0.22 0.20 0.15 0.11 0.12 0.14 0.13 0.12 0.10 0.07 0.04 0.03 0.02 0.02 0.03 0.03 0.03 0.03 0.04 0.06 0.08 0.13 0.17 0.19 0.19 0.20 0.24 0.25 0.25 0.28 0.29 0.32 0.38 0.44 0.46 0.45
0.44 0.34 0.20 0.11 0.09 0.14 0.20 0.21 0.14 0.11 0.10 0.08 0.09 0.10 0.09 0.09 0.09 0.08 0.06 0.05 0.03 0.03 0.04 0.03 0.04 0.05 0.05 0.06 0.09 0.15 0.20 0.23 0.23 0.25 0.28 0.32 0.37 0.41 0.40 0.40 0.43 0.44 0.41 0.37
0.43 0.35 0.19 0.09 0.05 0.06 0.15 0.25 0.09 0.06 0.06 0.06 0.07 0.10 0.09 0.08 0.08 0.06 0.07 0.08 0.07 0.07 0.07 0.07 0.09 0.11 0.12 0.14 0.16 0.19 0.20 0.24 0.25 0.27 0.32 0.36 0.40 0.45 0.47 0.43 0.38 0.33 0.27 0.22
0.33 0.29 0.11 0.05 0.02 0.04 0.19 0.27 0.09 0.06 0.05 0.05 0.06 0.06 0.06 0.06 0.05 0.05 0.06 0.08 0.10 0.13 0.15 0.16 0.19 0.20 0.22 0.23 0.23 0.24 0.25 0.28 0.30 0.31 0.34 0.36 0.38 0.37 0.35 0.31 0.24 0.18 0.14 0.10
0.17 0.22 0.12 0.05 0.05 0.09 0.14 0.09 0.07 0.07 0.07 0.08 0.10 0.09 0.07 0.06 0.05 0.05 0.07 0.10 0.12 0.15 0.18 0.21 0.23 0.25 0.26 0.28 0.29 0.28 0.28 0.29 0.30 0.30 0.27 0.24 0.22 0.21 0.18 0.14 0.10 0.07 0.05 0.03
0.12 0.13 0.08 0.05 0.06 0.06 0.08 0.06 0.06 0.06 0.06 0.08 0.13 0.13 0.11 0.09 0.06 0.06 0.07 0.10 0.11 0.12 0.13 0.14 0.18 0.23 0.26 0.27 0.26 0.24 0.23 0.23 0.21 0.18 0.16 0.12 0.09 0.07 0.06 0.04 0.04 0.03 0.02 0.01
0.09 0.07 0.05 0.05 0.05 0.03 0.03 0.04 0.06 0.07 0.08 0.09 0.10 0.13 0.12 0.12 0.09 0.09 0.08 0.06 0.07 0.08 0.08 0.09 0.10 0.13 0.15 0.15 0.15 0.13 0.12 0.11 0.09 0.08 0.07 0.05 0.03 0.02 0.02 0.01 0.01 0.01 0.01 0.01
0.08 0.05 0.05 0.06 0.05 0.04 0.04 0.04 0.05 0.07 0.08 0.08 0.08 0.10 0.12 0.12 0.10 0.09 0.07 0.05 0.04 0.04 0.04 0.04 0.04 0.05 0.05 0.05 0.05 0.05 0.04 0.03 0.03 0.02 0.02 0.02 0.02 0.01 0.01 0.01 0.01 0.01 0.01 0.02
0.11 0.06 0.06 0.06 0.04 0.03 0.03 0.03 0.04 0.06 0.07 0.06 0.07 0.09 0.10 0.08 0.06 0.07 0.08 0.06 0.04 0.03 0.03 0.02 0.02 0.02 0.02 0.02 0.02 0.02 0.02 0.02 0.01 0.01 0.01 0.01 0.01 0.01 0.02 0.01 0.01 0.01 0.01 0.02
0.09 0.06 0.05 0.04 0.04 0.03 0.02 0.02 0.02 0.03 0.04 0.03 0.03 0.05 0.06 0.06 0.06 0.05 0.05 0.04 0.03 0.03 0.02 0.02 0.02 0.02 0.02 0.01 0.01 0.01 0.01 0.01 0.01 0.01 0.01 0.01 0.01 0.01 0.01 0.01 0.01 0.01 0.01 0.01
0.05 0.04 0.03 0.03 0.04 0.03 0.02 0.02 0.02 0.02 0.02 0.02 0.02 0.03 0.04 0.05 0.06 0.06 0.06 0.05 0.05 0.03 0.03 0.03 0.02 0.02 0.01 0.01 0.01 0.01 0.01 0.02 0.02 0.01 0.01 0.01 0.01 0.01 0.01 0.01 0.01 0.01 0.01 0.01
0.03 0.03 0.04 0.03 0.03 0.03 0.03 0.03 0.02 0.02 0.02 0.02 0.02 0.02 0.03 0.05 0.07 0.09 0.07 0.06 0.05 0.04 0.03 0.03 0.02 0.01 0.01 0.01 0.01 0.01 0.01 0.01 0.01 0.02 0.02 0.02 0.02 0.02 0.02 0.02 0.02 0.02 0.01 0.01
0.04 0.04 0.04 0.04 0.03 0.03 0.04 0.04 0.03 0.03 0.03 0.03 0.04 0.03 0.03 0.05 0.06 0.08 0.07 0.06 0.05 0.04 0.04 0.03 0.03 0.02 0.02 0.02 0.01 0.01 0.02 0.03 0.03 0.02 0.02 0.03 0.03 0.03 0.03 0.03 0.03 0.03 0.02 0.02
0.07 0.06 0.06 0.05 0.05 0.04 0.04 0.04 0.04 0.03 0.03 0.03 0.03 0.03 0.03 0.04 0.05 0.07 0.07 0.05 0.05 0.04 0.04 0.04 0.04 0.03 0.03 0.03 0.03 0.03 0.03 0.04 0.05 0.04 0.03 0.03 0.03 0.04 0.04 0.04 0.04 0.03 0.02 0.03
0.07 0.09 0.09 0.08 0.08 0.07 0.06 0.05 0.05 0.04 0.03 0.03 0.03 0.03 0.04 0.05 0.06 0.07 0.07 0.07 0.06 0.05 0.05 0.05 0.05 0.05 0.05 0.04 0.04 0.05 0.05 0.05 0.05 0.04 0.04 0.04 0.05 0.05 0.05 0.05 0.04 0.04 0.03 0.04
0.08 0.10 0.11 0.10 0.09 0.09 0.08 0.07 0.07 0.06 0.05 0.04 0.04 0.04 0.04 0.05 0.05 0.06 0.08 0.08 0.07 0.07 0.07 0.07 0.09 0.08 0.06 0.07 0.08 0.07 0.06 0.06 0.07 0.07 0.07 0.07 0.08 0.06 0.05 0.05 0.05 0.05 0.05 0.05
0.11 0.13 0.14 0.14 0.13 0.11 0.11 0.09 0.08 0.07 0.06 0.05 0.05 0.06 0.06 0.06 0.06 0.06 0.08 0.08 0.09 0.09 0.11 0.12 0.11 0.09 0.08 0.10 0.12 0.09 0.07 0.08 0.09 0.09 0.10 0.09 0.08 0.07 0.07 0.07 0.07 0.07 0.06 0.06
0.14 0.15 0.15 0.16 0.16 0.15 0.14 0.12 0.10 0.08 0.07 0.06 0.06 0.06 0.06 0.07 0.07 0.07 0.07 0.08 0.09 0.10 0.10 0.13 0.12 0.10 0.11 0.13 0.15 0.12 0.10 0.10 0.11 0.11 0.11 0.10 0.10 0.10 0.10 0.09 0.09 0.08 0.08 0.08
0.15 0.15 0.16 0.16 0.16 0.16 0.14 0.11 0.10 0.10 0.09 0.09 0.09 0.07 0.07 0.07 0.08 0.08 0.07 0.08 0.09 0.12 0.11 0.09 0.09 0.12 0.15 0.17 0.14 0.12 0.12 0.13 0.13 0.13 0.13 0.12 0.12 0.12 0.12 0.11 0.12 0.11 0.11 0.10
0.14 0.13 0.13 0.14 0.13 0.13 0.13 0.11 0.10 0.10 0.10 0.10 0.09 0.09 0.08 0.08 0.08 0.08 0.08 0.08 0.08 0.09 0.08 0.08 0.10 0.14 0.17 0.16 0.12 0.12 0.13 0.14 0.13 0.13 0.13 0.13 0.14 0.14 0.15 0.14 0.13 0.12 0.12 0.11
0.12 0.11 0.11 0.11 0.11 0.10 0.10 0.11 0.11 0.10 0.09 0.09 0.08 0.08 0.07 0.07 0.07 0.07 0.06 0.08 0.08 0.09 0.08 0.08 0.11 0.13 0.14 0.12 0.11 0.12 0.13 0.14 0.14 0.14 0.14 0.15 0.15 0.15 0.15 0.15 0.14 0.12 0.11 0.11
0.08 0.08 0.08 0.09 0.08 0.08 0.08 0.09 0.09 0.09 0.09 0.08 0.07 0.07 0.07 0.07 0.07 0.07 0.07 0.07 0.07 0.08 0.07 0.08 0.10 0.11 0.11 0.10 0.10 0.12 0.12 0.13 0.14 0.14 0.14 0.14 0.14 0.14 0.14 0.13 0.13 0.12 0.11 0.10
0.06 0.05 0.06 0.06 0.07 0.07 0.07 0.09 0.10 0.09 0.08 0.08 0.09 0.08 0.07 0.06 0.06 0.06 0.07 0.07 0.08 0.08 0.07 0.08 0.09 0.11 0.10 0.10 0.11 0.12 0.12 0.12 0.12 0.12 0.11 0.12 0.13 0.14 0.13 0.11 0.11 0.10 0.10 0.09
0.03 0.03 0.03 0.04 0.06 0.06 0.06 0.07 0.09 0.10 0.10 0.09 0.08 0.08 0.07 0.07 0.07 0.08 0.08 0.08 0.08 0.08 0.08 0.08 0.08 0.09 0.09 0.10 0.10 0.10 0.10 0.10 0.10 0.11 0.11 0.12 0.12 0.12 0.11 0.10 0.10 0.09 0.09 0.08

GEFSNGP_prec_meanprecacc_102.txt.gz
Total_Precipitation_Accumulation
0.50 0.39 0.42 0.42 0.31 0.38 0.60 0.58 0.54 0.29 0.20 0.19 0.17 0.16 0.13 0.13 0.11 0.08 0.07 0.05 0.04 0.04 0.04 0.04 0.04 0.04 0.04 0.05 0.06 0.07 0.08 0.08 0.08 0.09 0.11 0.11 0.12 0.11 0.11 0.09 0.08 0.08 0.09 0.09
0.50 0.31 0.31 0.33 0.25 0.30 0.37 0.36 0.39 0.31 0.26 0.17 0.15 0.15 0.14 0.14 0.12 0.08 0.07 0.05 0.04 0.04 0.05 0.04 0.04 0.04 0.04 0.05 0.06 0.07 0.09 0.10 0.10 0.10 0.11 0.12 0.13 0.13 0.13 0.14 0.14 0.14 0.14 0.15
0.45 0.24 0.33 0.36 0.27 0.31 0.33 0.28 0.32 0.34 0.28 0.16 0.16 0.15 0.15 0.14 0.11 0.08 0.06 0.04 0.03 0.03 0.04 0.04 0.04 0.05 0.06 0.07 0.08 0.10 0.11 0.12 0.13 0.16 0.17 0.15 0.16 0.19 0.19 0.21 0.24 0.29 0.31 0.31
0.46 0.33 0.37 0.23 0.17 0.22 0.25 0.25 0.24 0.23 0.18 0.14 0.14 0.15 0.15 0.13 0.11 0.08 0.05 0.03 0.03 0.02 0.03 0.03 0.03 0.03 0.04 0.06 0.08 0.13 0.17 0.19 0.19 0.21 0.24 0.25 0.25 0.28 0.29 0.32 0.38 0.44 0.47 0.45
0.47 0.37 0.22 0.12 0.10 0.15 0.23 0.25 0.15 0.12 0.11 0.09 0.10 0.11 0.11 0.11 0.10 0.09 0.07 0.05 0.04 0.04 0.04 0.03 0.04 0.05 0.05 0.06 0.09 0.15 0.20 0.23 0.23 0.25 0.28 0.32 0.37 0.41 0.40 0.40 0.43 0.44 0.41 0.37
0.46 0.39 0.24 0.12 0.06 0.07 0.18 0.32 0.12 0.08 0.07 0.07 0.08 0.11 0.10 0.10 0.10 0.08 0.08 0.08 0.07 0.07 0.07 0.07 0.09 0.11 0.12 0.14 0.16 0.19 0.20 0.24 0.25 0.28 0.32 0.36 0.41 0.46 0.47 0.43 0.38 0.33 0.27 0.22
0.36 0.32 0.15 0.07 0.04 0.06 0.24 0.37 0.14 0.09 0.08 0.07 0.08 0.08 0.07 0.07 0.06 0.06 0.07 0.09 0.11 0.13 0.15 0.17 0.19 0.20 0.22 0.23 0.24 0.24 0.25 0.28 0.30 0.31 0.34 0.37 0.38 0.37 0.35 0.31 0.24 0.18 0.14 0.10
0.19 0.25 0.16 0.07 0.08 0.14 0.20 0.14 0.10 0.10 0.10 0.12 0.14 0.11 0.08 0.07 0.06 0.06 0.07 0.10 0.12 0.16 0.19 0.22 0.24 0.25 0.26 0.28 0.29 0.28 0.28 0.29 0.30 0.30 0.28 0.24 0.22 0.22 0.18 0.14 0.10 0.07 0.05 0.03
0.14 0.16 0.12 0.09 0.11 0.11 0.10 0.08 0.08 0.08 0.09 0.11 0.16 0.16 0.14 0.11 0.08 0.07 0.08 0.10 0.12 0.13 0.14 0.15 0.19 0.24 0.27 0.28 0.27 0.25 0.23 0.23 0.22 0.19 0.16 0.12 0.09 0.07 0.06 0.05 0.04 0.03 0.02 0.01
0.11 0.10 0.08 0.08 0.08 0.05 0.04 0.05 0.07 0.09 0.10 0.11 0.12 0.16 0.15 0.14 0.11 0.10 0.10 0.08 0.08 0.09 0.10 0.10 0.11 0.14 0.16 0.17 0.16 0.14 0.13 0.12 0.10 0.08 0.07 0.05 0.03 0.02 0.02 0.01 0.01 0.01 0.01 0.01
0.10 0.07 0.06 0.06 0.06 0.05 0.05 0.05 0.06 0.08 0.09 0.10 0.10 0.13 0.15 0.14 0.11 0.11 0.09 0.08 0.06 0.05 0.05 0.05 0.06 0.07 0.07 0.06 0.06 0.06 0.05 0.04 0.03 0.03 0.02 0.02 0.02 0.02 0.01 0.01 0.01 0.01 0.01 0.02
0.12 0.07 0.08 0.07 0.05 0.04 0.04 0.03 0.04 0.07 0.08 0.08 0.09 0.12 0.12 0.11 0.09 0.09 0.10 0.09 0.05 0.04 0.04 0.04 0.04 0.04 0.04 0.03 0.03 0.02 0.02 0.02 0.02 0.02 0.02 0.02 0.02 0.02 0.02 0.02 0.02 0.01 0.01 0.02
0.09 0.07 0.05 0.04 0.04 0.04 0.03 0.02 0.02 0.04 0.05 0.05 0.06 0.07 0.09 0.09 0.09 0.08 0.07 0.06 0.04 0.04 0.04 0.03 0.03 0.03 0.03 0.03 0.02 0.02 0.02 0.02 0.02 0.02 0.02 0.02 0.02 0.02 0.02 0.02 0.02 0.02 0.01 0.02
0.05 0.04 0.04 0.03 0.04 0.04 0.03 0.02 0.02 0.03 0.03 0.04 0.04 0.05 0.06 0.07 0.08 0.09 0.08 0.07 0.06 0.05 0.04 0.04 0.03 0.02 0.02 0.01 0.02 0.02 0.02 0.02 0.02 0.02 0.02 0.02 0.02 0.02 0.02 0.02 0.02 0.01 0.01 0.02
0.03 0.03 0.04 0.03 0.03 0.03 0.04 0.03 0.03 0.03 0.03 0.04 0.04 0.05 0.05 0.06 0.09 0.10 0.09 0.07 0.07 0.06 0.05 0.04 0.03 0.02 0.01 0.01 0.01 0.01 0.02 0.02 0.02 0.02 0.02 0.02 0.03 0.03 0.03 0.03 0.03 0.02 0.02 0.02
0.05 0.04 0.04 0.04 0.04 0.04 0.04 0.04 0.04 0.05 0.05 0.05 0.07 0.07 0.07 0.08 0.09 0.09 0.09 0.08 0.07 0.06 0.05 0.04 0.03 0.03 0.02 0.02 0.02 0.02 0.02 0.03 0.04 0.03 0.03 0.03 0.03 0.04 0.03 0.04 0.04 0.04 0.03 0.02
0.07 0.06 0.06 0.06 0.05 0.05 0.05 0.05 0.05 0.05 0.06 0.06 0.07 0.08 0.08 0.08 0.08 0.09 0.10 0.08 0.07 0.06 0.05 0.05 0.04 0.04 0.04 0.03 0.04 0.04 0.04 0.04 0.06 0.05 0.03 0.04 0.04 0.04 0.05 0.05 0.05 0.04 0.03 0.04
0.08 0.09 0.09 0.09 0.09 0.08 0.07 0.07 0.07 0.06 0.06 0.07 0.06 0.06 0.07 0.08 0.08 0.09 0.09 0.08 0.07 0.07 0.06 0.05 0.06 0.05 0.05 0.05 0.05 0.05 0.06 0.06 0.06 0.05 0.04 0.05 0.06 0.06 0.06 0.06 0.05 0.04 0.04 0.06
0.08 0.10 0.11 0.10 0.10 0.10 0.10 0.09 0.10 0.09 0.09 0.08 0.08 0.08 0.08 0.08 0.07 0.08 0.09 0.09 0.08 0.08 0.08 0.08 0.10 0.08 0.07 0.07 0.09 0.07 0.07 0.07 0.07 0.07 0.07 0.08 0.09 0.06 0.06 0.06 0.06 0.06 0.06 0.06
0.11 0.13 0.15 0.15 0.14 0.13 0.13 0.12 0.11 0.10 0.10 0.10 0.09 0.09 0.09 0.09 0.09 0.08 0.09 0.10 0.10 0.10 0.11 0.12 0.12 0.09 0.09 0.10 0.13 0.09 0.08 0.08 0.09 0.10 0.10 0.10 0.09 0.08 0.07 0.08 0.08 0.07 0.07 0.07
0.14 0.15 0.16 0.16 0.17 0.16 0.16 0.15 0.13 0.12 0.10 0.09 0.09 0.09 0.08 0.09 0.09 0.09 0.09 0.09 0.10 0.10 0.10 0.14 0.12 0.10 0.11 0.13 0.16 0.12 0.10 0.10 0.11 0.11 0.11 0.11 0.11 0.11 0.10 0.10 0.10 0.09 0.09 0.09
0.15 0.15 0.16 0.17 0.16 0.17 0.16 0.13 0.12 0.12 0.11 0.11 0.10 0.09 0.08 0.09 0.09 0.09 0.09 0.09 0.10 0.12 0.11 0.10 0.10 0.12 0.16 0.18 0.15 0.12 0.12 0.13 0.13 0.14 0.14 0.13 0.13 0.13 0.12 0.12 0.12 0.12 0.12 0.12
0.14 0.14 0.14 0.14 0.14 0.14 0.14 0.13 0.12 0.12 0.11 0.11 0.10 0.10 0.09 0.09 0.09 0.09 0.09 0.09 0.09 0.10 0.09 0.08 0.11 0.15 0.17 0.16 0.13 0.12 0.13 0.14 0.14 0.14 0.14 0.14 0.14 0.15 0.15 0.15 0.14 0.13 0.13 0.12
0.12 0.11 0.11 0.11 0.12 0.11 0.12 0.13 0.12 0.11 0.10 0.10 0.09 0.09 0.08 0.08 0.08 0.08 0.07 0.08 0.09 0.09 0.08 0.09 0.12 0.14 0.14 0.12 0.11 0.12 0.13 0.14 0.15 0.15 0.15 0.16 0.16 0.16 0.16 0.15 0.15 0.13 0.12 0.12
0.08 0.09 0.09 0.09 0.09 0.09 0.10 0.10 0.10 0.10 0.10 0.09 0.08 0.08 0.07 0.07 0.08 0.08 0.08 0.07 0.08 0.08 0.07 0.09 0.11 0.12 0.12 0.10 0.11 0.12 0.13 0.13 0.14 0.15 0.15 0.15 0.15 0.15 0.14 0.14 0.14 0.13 0.12 0.11
0.06 0.06 0.06 0.07 0.07 0.07 0.08 0.10 0.11 0.10 0.09 0.09 0.09 0.08 0.07 0.07 0.07 0.07 0.08 0.08 0.09 0.09 0.08 0.08 0.10 0.11 0.11 0.10 0.11 0.12 0.12 0.12 0.13 0.12 0.12 0.12 0.13 0.14 0.13 0.12 0.11 0.11 0.10 0.10
0.03 0.03 0.04 0.05 0.06 0.06 0.06 0.08 0.10 0.11 0.10 0.09 0.09 0.08 0.08 0.07 0.08 0.08 0.08 0.08 0.09 0.09 0.08 0.08 0.09 0.10 0.10 0.10 0.11 0.11 0.10 0.10 0.10 0.11 0.11 0.12 0.12 0.12 0.11 0.11 0.11 0.10 0.09 0.09

GEFSNGP_prec_meanprecacc_108.txt.gz
Total_Precipitation_Accumulation
0.51 0.39 0.44 0.44 0.33 0.40 0.65 0.63 0.61 0.34 0.23 0.23 0.20 0.18 0.14 0.13 0.11 0.08 0.07 0.05 0.05 0.05 0.05 0.05 0.04 0.04 0.05 0.05 0.06 0.07 0.08 0.09 0.09 0.10 0.12 0.12 0.13 0.13 0.13 0.11 0.10 0.11 0.12 0.12
0.51 0.32 0.32 0.35 0.27 0.32 0.39 0.40 0.43 0.34 0.30 0.20 0.18 0.16 0.15 0.15 0.12 0.09 0.07 0.05 0.04 0.04 0.05 0.05 0.04 0.04 0.05 0.05 0.06 0.08 0.10 0.11 0.11 0.11 0.12 0.13 0.14 0.14 0.13 0.14 0.14 0.14 0.15 0.16
0.46 0.25 0.33 0.37 0.29 0.33 0.35 0.32 0.36 0.39 0.31 0.18 0.18 0.16 0.16 0.15 0.12 0.08 0.06 0.05 0.03 0.03 0.04 0.04 0.04 0.05 0.07 0.07 0.08 0.10 0.11 0.12 0.13 0.16 0.18 0.16 0.17 0.20 0.20 0.22 0.25 0.29 0.32 0.31
0.46 0.33 0.38 0.24 0.18 0.23 0.27 0.28 0.28 0.26 0.21 0.16 0.16 0.17 0.17 0.16 0.13 0.08 0.05 0.04 0.03 0.03 0.03 0.03 0.03 0.04 0.05 0.06 0.08 0.13 0.18 0.19 0.19 0.21 0.25 0.26 0.26 0.29 0.30 0.33 0.39 0.45 0.47 0.46
0.48 0.38 0.22 0.13 0.10 0.15 0.24 0.27 0.17 0.14 0.13 0.10 0.11 0.13 0.12 0.13 0.12 0.10 0.08 0.06 0.04 0.04 0.04 0.04 0.05 0.05 0.05 0.06 0.09 0.15 0.20 0.24 0.23 0.26 0.29 0.33 0.38 0.42 0.41 0.42 0.44 0.45 0.41 0.38
0.46 0.39 0.24 0.13 0.06 0.07 0.19 0.34 0.13 0.09 0.08 0.08 0.09 0.14 0.12 0.11 0.12 0.09 0.08 0.09 0.08 0.07 0.07 0.07 0.09 0.11 0.13 0.14 0.16 0.20 0.21 0.25 0.26 0.28 0.33 0.37 0.41 0.46 0.48 0.44 0.40 0.35 0.29 0.23
0.36 0.33 0.16 0.08 0.04 0.06 0.27 0.39 0.15 0.10 0.09 0.09 0.11 0.11 0.10 0.08 0.08 0.08 0.08 0.10 0.12 0.14 0.15 0.17 0.19 0.21 0.22 0.23 0.24 0.25 0.26 0.29 0.31 0.32 0.35 0.38 0.40 0.39 0.37 0.32 0.26 0.20 0.16 0.11
0.20 0.25 0.17 0.09 0.10 0.17 0.23 0.15 0.11 0.11 0.11 0.14 0.16 0.14 0.11 0.09 0.08 0.08 0.10 0.12 0.14 0.18 0.20 0.23 0.24 0.26 0.27 0.29 0.30 0.29 0.29 0.31 0.32 0.32 0.30 0.26 0.25 0.24 0.21 0.16 0.12 0.09 0.06 0.04
0.14 0.17 0.13 0.12 0.15 0.16 0.14 0.11 0.09 0.09 0.10 0.13 0.19 0.19 0.17 0.14 0.11 0.09 0.10 0.13 0.14 0.15 0.15 0.17 0.21 0.26 0.28 0.29 0.28 0.26 0.25 0.26 0.24 0.21 0.18 0.14 0.11 0.09 0.08 0.06 0.05 0.05 0.04 0.02
0.12 0.11 0.10 0.11 0.12 0.09 0.08 0.07 0.09 0.10 0.11 0.13 0.14 0.18 0.17 0.16 0.14 0.13 0.12 0.10 0.10 0.11 0.11 0.12 0.13 0.15 0.18 0.19 0.18 0.17 0.15 0.14 0.12 0.11 0.10 0.07 0.05 0.04 0.03 0.03 0.02 0.02 0.02 0.02
0.11 0.08 0.07 0.07 0.07 0.06 0.06 0.05 0.07 0.09 0.10 0.11 0.12 0.14 0.16 0.16 0.14 0.14 0.13 0.11 0.08 0.07 0.07 0.07 0.08 0.08 0.09 0.09 0.08 0.07 0.07 0.06 0.05 0.05 0.04 0.04 0.04 0.03 0.03 0.02 0.02 0.02 0.02 0.03
0.13 0.08 0.08 0.07 0.05 0.04 0.04 0.03 0.04 0.07 0.09 0.09 0.10 0.13 0.14 0.13 0.12 0.12 0.13 0.12 0.09 0.07 0.06 0.05 0.05 0.05 0.05 0.05 0.05 0.05 0.04 0.04 0.03 0.03 0.03 0.03 0.04 0.04 0.05 0.04 0.04 0.03 0.03 0.03
0.10 0.07 0.06 0.05 0.04 0.04 0.03 0.02 0.03 0.04 0.06 0.07 0.07 0.09 0.11 0.11 0.12 0.11 0.10 0.09 0.08 0.07 0.06 0.05 0.04 0.04 0.04 0.04 0.04 0.04 0.03 0.04 0.04 0.04 0.04 0.04 0.04 0.04 0.04 0.05 0.05 0.04 0.03 0.03
0.05 0.04 0.04 0.03 0.04 0.04 0.03 0.03 0.03 0.03 0.04 0.05 0.06 0.07 0.08 0.09 0.10 0.11 0.11 0.11 0.09 0.07 0.06 0.06 0.05 0.03 0.03 0.02 0.03 0.03 0.03 0.03 0.03 0.03 0.03 0.03 0.03 0.04 0.04 0.04 0.04 0.03 0.03 0.04
0.03 0.04 0.04 0.03 0.03 0.03 0.04 0.03 0.03 0.04 0.04 0.05 0.06 0.07 0.08 0.09 0.11 0.13 0.12 0.10 0.09 0.08 0.06 0.06 0.06 0.05 0.03 0.02 0.02 0.02 0.02 0.03 0.03 0.03 0.03 0.03 0.03 0.04 0.04 0.04 0.04 0.04 0.03 0.03
0.05 0.04 0.05 0.04 0.04 0.04 0.04 0.04 0.04 0.05 0.06 0.06 0.08 0.09 0.09 0.10 0.12 0.13 0.12 0.11 0.09 0.08 0.07 0.06 0.06 0.05 0.04 0.04 0.03 0.03 0.03 0.04 0.04 0.03 0.04 0.04 0.05 0.05 0.05 0.05 0.05 0.05 0.04 0.03
0.07 0.06 0.06 0.06 0.05 0.05 0.05 0.05 0.05 0.05 0.06 0.07 0.09 0.11 0.11 0.11 0.12 0.14 0.13 0.11 0.10 0.09 0.08 0.07 0.06 0.05 0.05 0.05 0.05 0.05 0.05 0.06 0.07 0.06 0.04 0.04 0.05 0.05 0.06 0.06 0.06 0.05 0.04 0.06
0.08 0.09 0.09 0.09 0.09 0.08 0.07 0.07 0.07 0.07 0.07 0.08 0.08 0.08 0.10 0.11 0.12 0.13 0.12 0.11 0.11 0.10 0.09 0.07 0.07 0.07 0.07 0.06 0.06 0.07 0.07 0.07 0.07 0.06 0.06 0.06 0.07 0.07 0.07 0.06 0.05 0.05 0.05 0.07
0.08 0.11 0.11 0.10 0.10 0.10 0.10 0.09 0.10 0.10 0.09 0.09 0.10 0.10 0.11 0.11 0.11 0.12 0.13 0.12 0.11 0.11 0.11 0.09 0.12 0.10 0.08 0.09 0.11 0.09 0.08 0.08 0.08 0.08 0.08 0.09 0.10 0.07 0.06 0.06 0.06 0.06 0.06 0.06
0.12 0.13 0.15 0.15 0.14 0.13 0.13 0.12 0.11 0.11 0.11 0.10 0.10 0.11 0.12 0.12 0.12 0.12 0.12 0.12 0.12 0.12 0.12 0.13 0.13 0.10 0.10 0.11 0.14 0.10 0.09 0.10 0.11 0.11 0.11 0.10 0.10 0.09 0.08 0.08 0.08 0.08 0.08 0.07
0.14 0.15 0.16 0.17 0.17 0.17 0.16 0.15 0.13 0.12 0.11 0.10 0.10 0.10 0.10 0.11 0.11 0.11 0.11 0.11 0.11 0.11 0.11 0.14 0.13 0.11 0.12 0.14 0.17 0.13 0.11 0.12 0.12 0.12 0.12 0.12 0.12 0.11 0.11 0.11 0.10 0.10 0.09 0.09
0.15 0.15 0.16 0.17 0.16 0.17 0.16 0.14 0.13 0.13 0.12 0.11 0.10 0.09 0.09 0.10 0.10 0.10 0.10 0.10 0.11 0.13 0.12 0.11 0.11 0.13 0.17 0.19 0.16 0.13 0.13 0.14 0.15 0.15 0.15 0.14 0.14 0.14 0.13 0.13 0.13 0.13 0.12 0.12
0.15 0.14 0.14 0.14 0.14 0.15 0.14 0.13 0.13 0.13 0.12 0.12 0.11 0.10 0.10 0.10 0.10 0.10 0.10 0.09 0.09 0.10 0.09 0.08 0.11 0.15 0.19 0.18 0.14 0.13 0.15 0.16 0.16 0.15 0.15 0.15 0.15 0.16 0.16 0.16 0.15 0.14 0.14 0.13
0.12 0.11 0.11 0.11 0.12 0.12 0.12 0.13 0.13 0.12 0.11 0.11 0.10 0.10 0.09 0.09 0.09 0.08 0.08 0.09 0.09 0.10 0.09 0.09 0.13 0.15 0.15 0.13 0.12 0.13 0.14 0.15 0.16 0.16 0.16 0.17 0.17 0.17 0.17 0.16 0.15 0.13 0.13 0.13
0.09 0.09 0.09 0.09 0.09 0.09 0.10 0.11 0.11 0.11 0.11 0.10 0.09 0.09 0.08 0.08 0.09 0.09 0.08 0.08 0.09 0.09 0.08 0.09 0.11 0.12 0.12 0.11 0.11 0.13 0.13 0.14 0.15 0.16 0.16 0.16 0.16 0.16 0.15 0.15 0.14 0.14 0.13 0.12
0.06 0.06 0.06 0.07 0.07 0.07 0.08 0.10 0.12 0.10 0.09 0.10 0.10 0.09 0.08 0.07 0.08 0.08 0.08 0.09 0.09 0.10 0.09 0.09 0.10 0.12 0.11 0.11 0.12 0.12 0.13 0.13 0.14 0.13 0.13 0.13 0.14 0.15 0.14 0.13 0.12 0.12 0.11 0.10
0.04 0.03 0.04 0.05 0.06 0.06 0.06 0.08 0.10 0.11 0.11 0.09 0.09 0.09 0.08 0.08 0.08 0.08 0.09 0.09 0.09 0.10 0.09 0.09 0.10 0.11 0.11 0.11 0.12 0.11 0.11 0.11 0.11 0.12 0.13 0.13 0.13 0.13 0.12 0.12 0.11 0.10 0.10 0.09

GEFSNGP_prec_meanprecacc_114.txt.gz
Total_Precipitation_Accumulation
0.51 0.40 0.44 0.44 0.34 0.41 0.66 0.65 0.65 0.38 0.26 0.26 0.24 0.20 0.15 0.14 0.11 0.09 0.07 0.06 0.06 0.06 0.06 0.06 0.05 0.05 0.05 0.06 0.07 0.08 0.10 0.11 0.11 0.12 0.14 0.15 0.16 0.16 0.15 0.14 0.12 0.13 0.14 0.14
0.52 0.32 0.32 0.35 0.28 0.32 0.40 0.41 0.45 0.36 0.31 0.22 0.21 0.18 0.16 0.16 0.13 0.09 0.08 0.06 0.05 0.05 0.06 0.05 0.05 0.06 0.06 0.06 0.07 0.08 0.10 0.12 0.12 0.13 0.14 0.14 0.16 0.16 0.16 0.16 0.17 0.16 0.17 0.18
0.46 0.25 0.33 0.38 0.30 0.34 0.37 0.33 0.38 0.41 0.33 0.20 0.20 0.18 0.17 0.16 0.12 0.09 0.07 0.06 0.04 0.04 0.05 0.05 0.05 0.06 0.08 0.08 0.08 0.11 0.12 0.13 0.14 0.17 0.19 0.17 0.18 0.21 0.22 0.24 0.27 0.32 0.34 0.33
0.46 0.33 0.38 0.25 0.18 0.23 0.28 0.30 0.30 0.29 0.22 0.17 0.18 0.18 0.18 0.16 0.13 0.09 0.07 0.05 0.04 0.04 0.04 0.04 0.04 0.05 0.06 0.07 0.09 0.14 0.18 0.20 0.20 0.21 0.25 0.27 0.27 0.30 0.32 0.35 0.41 0.47 0.49 0.48
0.48 0.38 0.22 0.13 0.10 0.16 0.25 0.28 0.18 0.16 0.14 0.11 0.12 0.13 0.13 0.14 0.13 0.10 0.09 0.07 0.05 0.04 0.05 0.05 0.06 0.07 0.07 0.07 0.09 0.16 0.21 0.24 0.24 0.26 0.29 0.34 0.39 0.43 0.43 0.43 0.46 0.47 0.43 0.40
0.47 0.39 0.24 0.13 0.06 0.07 0.20 0.34 0.14 0.10 0.09 0.09 0.11 0.16 0.15 0.13 0.13 0.10 0.09 0.10 0.09 0.08 0.08 0.09 0.11 0.13 0.14 0.15 0.17 0.21 0.22 0.26 0.27 0.29 0.33 0.37 0.42 0.48 0.49 0.47 0.42 0.38 0.32 0.26
0.36 0.33 0.16 0.08 0.04 0.07 0.28 0.40 0.15 0.10 0.09 0.10 0.12 0.13 0.12 0.10 0.09 0.10 0.10 0.11 0.13 0.16 0.17 0.19 0.21 0.23 0.24 0.24 0.25 0.26 0.27 0.30 0.33 0.33 0.36 0.39 0.41 0.41 0.39 0.35 0.29 0.24 0.19 0.15
0.20 0.26 0.17 0.09 0.11 0.18 0.24 0.16 0.12 0.11 0.11 0.14 0.17 0.15 0.12 0.11 0.09 0.09 0.12 0.14 0.16 0.20 0.22 0.25 0.26 0.27 0.29 0.31 0.31 0.30 0.30 0.31 0.33 0.34 0.32 0.28 0.27 0.26 0.23 0.19 0.15 0.12 0.10 0.07
0.14 0.17 0.14 0.12 0.16 0.18 0.17 0.13 0.11 0.10 0.10 0.13 0.19 0.20 0.18 0.15 0.12 0.10 0.11 0.14 0.15 0.17 0.18 0.20 0.24 0.28 0.31 0.31 0.29 0.27 0.26 0.26 0.26 0.23 0.20 0.18 0.15 0.13 0.12 0.10 0.09 0.09 0.08 0.06
0.12 0.12 0.11 0.11 0.13 0.12 0.12 0.11 0.10 0.10 0.11 0.13 0.15 0.18 0.18 0.17 0.15 0.15 0.13 0.11 0.12 0.13 0.13 0.14 0.15 0.18 0.21 0.22 0.21 0.19 0.17 0.16 0.14 0.12 0.11 0.10 0.08 0.07 0.07 0.06 0.06 0.06 0.06 0.06
0.11 0.08 0.07 0.07 0.07 0.07 0.07 0.07 0.08 0.09 0.10 0.12 0.12 0.15 0.17 0.17 0.15 0.15 0.14 0.12 0.10 0.09 0.09 0.09 0.09 0.10 0.11 0.12 0.11 0.10 0.10 0.09 0.08 0.07 0.07 0.07 0.07 0.08 0.08 0.06 0.06 0.06 0.06 0.06
0.13 0.08 0.09 0.08 0.05 0.04 0.04 0.04 0.05 0.07 0.09 0.09 0.10 0.14 0.15 0.14 0.13 0.12 0.14 0.14 0.11 0.10 0.09 0.08 0.08 0.08 0.08 0.08 0.08 0.07 0.07 0.07 0.07 0.06 0.06 0.07 0.07 0.08 0.10 0.09 0.09 0.07 0.06 0.06
0.10 0.07 0.06 0.05 0.04 0.04 0.03 0.03 0.03 0.04 0.06 0.07 0.07 0.09 0.11 0.12 0.13 0.12 0.12 0.11 0.10 0.09 0.09 0.08 0.08 0.09 0.08 0.07 0.07 0.07 0.06 0.06 0.07 0.08 0.08 0.07 0.07 0.07 0.07 0.08 0.08 0.07 0.06 0.06
0.05 0.04 0.04 0.03 0.04 0.04 0.03 0.03 0.03 0.03 0.04 0.05 0.07 0.07 0.08 0.09 0.11 0.12 0.13 0.13 0.12 0.10 0.09 0.09 0.08 0.07 0.06 0.06 0.06 0.07 0.07 0.07 0.07 0.06 0.07 0.07 0.07 0.06 0.06 0.06 0.06 0.06 0.06 0.07
0.04 0.04 0.04 0.03 0.03 0.03 0.04 0.03 0.03 0.04 0.04 0.05 0.06 0.07 0.08 0.09 0.12 0.14 0.13 0.12 0.13 0.12 0.10 0.08 0.08 0.07 0.06 0.05 0.06 0.06 0.06 0.07 0.07 0.07 0.07 0.06 0.06 0.06 0.06 0.06 0.07 0.06 0.06 0.07
0.05 0.04 0.05 0.04 0.04 0.04 0.04 0.04 0.04 0.05 0.06 0.06 0.08 0.09 0.10 0.11 0.13 0.15 0.14 0.13 0.12 0.12 0.11 0.09 0.08 0.07 0.07 0.07 0.07 0.06 0.06 0.08 0.08 0.08 0.07 0.07 0.07 0.06 0.06 0.06 0.07 0.07 0.06 0.06
0.07 0.06 0.06 0.06 0.05 0.05 0.05 0.05 0.05 0.05 0.06 0.07 0.09 0.11 0.11 0.12 0.14 0.15 0.15 0.14 0.13 0.12 0.11 0.09 0.08 0.07 0.07 0.07 0.08 0.08 0.08 0.09 0.11 0.09 0.07 0.07 0.07 0.07 0.08 0.08 0.08 0.07 0.06 0.08
0.08 0.09 0.09 0.09 0.09 0.08 0.07 0.07 0.07 0.07 0.07 0.08 0.08 0.08 0.10 0.12 0.13 0.15 0.14 0.13 0.13 0.13 0.11 0.10 0.09 0.09 0.09 0.09 0.09 0.09 0.10 0.10 0.10 0.09 0.08 0.08 0.09 0.09 0.08 0.08 0.07 0.07 0.06 0.08
0.08 0.11 0.12 0.11 0.10 0.10 0.10 0.09 0.10 0.10 0.09 0.09 0.10 0.10 0.11 0.11 0.12 0.13 0.14 0.14 0.13 0.13 0.13 0.12 0.13 0.11 0.10 0.11 0.13 0.11 0.10 0.10 0.11 0.11 0.11 0.12 0.12 0.09 0.08 0.08 0.08 0.08 0.08 0.08
0.12 0.13 0.15 0.15 0.14 0.13 0.13 0.12 0.11 0.11 0.11 0.11 0.11 0.11 0.12 0.13 0.13 0.13 0.13 0.14 0.14 0.14 0.14 0.14 0.14 0.11 0.11 0.12 0.16 0.11 0.10 0.11 0.12 0.13 0.13 0.13 0.12 0.10 0.10 0.10 0.10 0.10 0.09 0.09
0.14 0.15 0.16 0.17 0.17 0.17 0.16 0.15 0.13 0.12 0.11 0.10 0.11 0.10 0.11 0.12 0.12 0.12 0.12 0.12 0.12 0.12 0.12 0.15 0.14 0.12 0.13 0.15 0.19 0.14 0.13 0.13 0.14 0.14 0.14 0.14 0.14 0.14 0.13 0.13 0.12 0.12 0.11 0.11
0.15 0.15 0.16 0.17 0.16 0.17 0.16 0.14 0.13 0.13 0.12 0.11 0.11 0.10 0.09 0.10 0.11 0.11 0.11 0.11 0.12 0.14 0.13 0.11 0.11 0.14 0.18 0.21 0.17 0.14 0.15 0.16 0.16 0.16 0.16 0.16 0.16 0.16 0.15 0.15 0.15 0.15 0.14 0.14
0.15 0.14 0.14 0.14 0.14 0.15 0.14 0.13 0.13 0.13 0.13 0.12 0.11 0.11 0.10 0.10 0.11 0.11 0.11 0.10 0.10 0.11 0.10 0.09 0.12 0.16 0.19 0.18 0.15 0.14 0.15 0.17 0.17 0.17 0.16 0.17 0.17 0.18 0.18 0.18 0.17 0.16 0.16 0.15
0.12 0.11 0.11 0.11 0.12 0.12 0.12 0.13 0.13 0.12 0.11 0.11 0.10 0.10 0.10 0.10 0.10 0.10 0.09 0.10 0.10 0.11 0.09 0.10 0.14 0.15 0.16 0.13 0.12 0.14 0.15 0.16 0.17 0.17 0.17 0.18 0.18 0.19 0.18 0.18 0.17 0.15 0.14 0.14
0.09 0.09 0.09 0.09 0.09 0.09 0.10 0.11 0.11 0.11 0.11 0.10 0.09 0.09 0.09 0.09 0.09 0.09 0.09 0.08 0.09 0.10 0.08 0.10 0.12 0.13 0.13 0.11 0.12 0.13 0.14 0.15 0.16 0.18 0.18 0.17 0.17 0.17 0.17 0.16 0.16 0.15 0.14 0.12
0.06 0.06 0.06 0.07 0.07 0.07 0.08 0.10 0.12 0.10 0.09 0.10 0.10 0.09 0.08 0.08 0.08 0.08 0.09 0.09 0.10 0.10 0.09 0.09 0.11 0.12 0.12 0.12 0.12 0.13 0.14 0.14 0.15 0.14 0.14 0.15 0.16 0.17 0.16 0.14 0.13 0.13 0.12 0.11
0.04 0.03 0.04 0.05 0.06 0.06 0.06 0.08 0.10 0.11 0.11 0.10 0.09 0.09 0.08 0.08 0.08 0.09 0.09 0.09 0.10 0.10 0.09 0.09 0.10 0.11 0.12 0.12 0.12 0.12 0.12 0.12 0.12 0.13 0.14 0.14 0.15 0.15 0.14 0.13 0.13 0.12 0.11 0.10

GEFSNGP_prec_meanprecacc_120.txt.gz
Total_Precipitation_Accumulation
0.51 0.40 0.44 0.44 0.34 0.42 0.68 0.68 0.67 0.41 0.29 0.29 0.26 0.22 0.17 0.15 0.12 0.10 0.09 0.08 0.07 0.08 0.08 0.09 0.08 0.07 0.07 0.08 0.09 0.11 0.13 0.15 0.18 0.20 0.22 0.22 0.22 0.23 0.24 0.23 0.23 0.26 0.25 0.25
0.52 0.32 0.32 0.35 0.28 0.33 0.41 0.42 0.47 0.38 0.33 0.23 0.22 0.19 0.17 0.17 0.14 0.10 0.10 0.08 0.07 0.07 0.08 0.09 0.08 0.08 0.08 0.08 0.09 0.10 0.12 0.15 0.17 0.19 0.22 0.23 0.24 0.23 0.23 0.24 0.25 0.28 0.28 0.29
0.46 0.25 0.33 0.38 0.30 0.35 0.37 0.34 0.40 0.43 0.35 0.21 0.21 0.19 0.19 0.18 0.14 0.11 0.10 0.08 0.06 0.06 0.07 0.07 0.07 0.09 0.10 0.10 0.11 0.13 0.14 0.14 0.16 0.22 0.25 0.24 0.26 0.29 0.29 0.30 0.34 0.40 0.43 0.43
0.46 0.33 0.38 0.25 0.18 0.24 0.28 0.31 0.32 0.30 0.23 0.17 0.18 0.20 0.20 0.18 0.16 0.12 0.09 0.07 0.05 0.05 0.05 0.05 0.06 0.07 0.08 0.08 0.11 0.16 0.21 0.22 0.23 0.24 0.29 0.32 0.32 0.36 0.38 0.40 0.47 0.53 0.56 0.55
0.48 0.38 0.23 0.13 0.10 0.16 0.25 0.29 0.19 0.17 0.15 0.11 0.12 0.14 0.14 0.15 0.14 0.12 0.10 0.08 0.06 0.06 0.06 0.06 0.07 0.08 0.09 0.09 0.11 0.18 0.22 0.27 0.26 0.29 0.33 0.37 0.43 0.47 0.48 0.49 0.52 0.53 0.51 0.48
0.47 0.40 0.24 0.13 0.06 0.07 0.20 0.35 0.14 0.10 0.10 0.10 0.11 0.16 0.15 0.13 0.13 0.11 0.10 0.12 0.10 0.09 0.09 0.09 0.11 0.14 0.16 0.17 0.20 0.23 0.23 0.28 0.29 0.32 0.36 0.41 0.46 0.52 0.55 0.54 0.51 0.44 0.39 0.33
0.37 0.33 0.16 0.08 0.04 0.07 0.28 0.41 0.16 0.11 0.10 0.11 0.13 0.14 0.12 0.10 0.09 0.10 0.10 0.13 0.16 0.18 0.19 0.20 0.23 0.24 0.25 0.26 0.27 0.29 0.29 0.33 0.35 0.36 0.39 0.43 0.45 0.45 0.44 0.41 0.36 0.30 0.25 0.20
0.20 0.26 0.17 0.09 0.11 0.18 0.24 0.16 0.12 0.12 0.12 0.15 0.17 0.15 0.12 0.11 0.09 0.09 0.12 0.14 0.18 0.22 0.25 0.27 0.29 0.30 0.31 0.33 0.33 0.32 0.32 0.34 0.36 0.36 0.35 0.32 0.31 0.31 0.28 0.24 0.23 0.18 0.15 0.13
0.14 0.17 0.14 0.12 0.16 0.18 0.18 0.14 0.12 0.11 0.11 0.14 0.20 0.20 0.18 0.15 0.12 0.10 0.11 0.14 0.16 0.19 0.20 0.22 0.26 0.31 0.34 0.35 0.33 0.30 0.28 0.28 0.28 0.26 0.23 0.21 0.18 0.17 0.16 0.15 0.15 0.15 0.13 0.11
0.12 0.12 0.11 0.12 0.14 0.13 0.13 0.12 0.11 0.11 0.12 0.13 0.15 0.19 0.18 0.17 0.15 0.15 0.14 0.12 0.12 0.14 0.15 0.15 0.17 0.21 0.25 0.26 0.25 0.22 0.19 0.18 0.17 0.16 0.16 0.14 0.11 0.10 0.10 0.10 0.10 0.11 0.11 0.09
0.11 0.09 0.08 0.07 0.07 0.07 0.07 0.07 0.08 0.10 0.10 0.12 0.12 0.15 0.17 0.17 0.15 0.15 0.15 0.13 0.11 0.10 0.10 0.10 0.11 0.12 0.16 0.17 0.16 0.15 0.13 0.11 0.10 0.11 0.13 0.12 0.11 0.11 0.11 0.11 0.12 0.12 0.11 0.10
0.13 0.08 0.09 0.08 0.05 0.04 0.04 0.04 0.05 0.07 0.09 0.09 0.10 0.14 0.15 0.14 0.13 0.13 0.14 0.15 0.11 0.10 0.10 0.09 0.09 0.10 0.10 0.12 0.13 0.13 0.11 0.11 0.11 0.10 0.10 0.12 0.12 0.12 0.15 0.16 0.17 0.17 0.15 0.13
0.10 0.07 0.06 0.05 0.04 0.04 0.03 0.03 0.03 0.04 0.06 0.07 0.07 0.09 0.11 0.12 0.13 0.12 0.12 0.12 0.10 0.10 0.10 0.09 0.10 0.11 0.10 0.11 0.11 0.12 0.11 0.11 0.12 0.13 0.12 0.13 0.13 0.11 0.11 0.13 0.15 0.15 0.15 0.15
0.05 0.04 0.04 0.03 0.04 0.04 0.03 0.03 0.03 0.03 0.04 0.05 0.07 0.07 0.08 0.10 0.12 0.13 0.13 0.14 0.13 0.11 0.10 0.10 0.10 0.09 0.08 0.09 0.10 0.12 0.13 0.13 0.12 0.13 0.14 0.14 0.14 0.13 0.11 0.11 0.11 0.11 0.12 0.15
0.04 0.04 0.04 0.03 0.03 0.03 0.04 0.03 0.03 0.04 0.04 0.05 0.06 0.07 0.08 0.10 0.13 0.15 0.14 0.13 0.13 0.12 0.10 0.09 0.10 0.09 0.08 0.07 0.08 0.10 0.12 0.12 0.12 0.13 0.14 0.15 0.15 0.16 0.13 0.11 0.11 0.10 0.10 0.12
0.05 0.04 0.05 0.04 0.04 0.04 0.04 0.04 0.04 0.05 0.06 0.06 0.08 0.09 0.10 0.11 0.14 0.15 0.15 0.14 0.13 0.12 0.11 0.10 0.09 0.08 0.08 0.08 0.09 0.09 0.10 0.13 0.13 0.12 0.13 0.14 0.14 0.15 0.15 0.13 0.12 0.10 0.09 0.09
0.07 0.06 0.06 0.06 0.05 0.05 0.05 0.05 0.05 0.05 0.06 0.07 0.09 0.11 0.11 0.12 0.14 0.16 0.16 0.15 0.14 0.13 0.12 0.10 0.09 0.08 0.08 0.08 0.09 0.10 0.11 0.12 0.15 0.13 0.12 0.13 0.14 0.14 0.15 0.15 0.14 0.11 0.09 0.11
0.08 0.09 0.09 0.09 0.09 0.08 0.07 0.07 0.07 0.07 0.07 0.08 0.08 0.08 0.10 0.12 0.14 0.15 0.15 0.14 0.14 0.14 0.12 0.11 0.10 0.10 0.09 0.09 0.10 0.11 0.12 0.12 0.12 0.12 0.12 0.12 0.14 0.14 0.13 0.13 0.13 0.12 0.10 0.12
0.08 0.11 0.12 0.11 0.10 0.10 0.10 0.09 0.10 0.10 0.09 0.09 0.10 0.10 0.11 0.12 0.12 0.14 0.15 0.15 0.14 0.14 0.14 0.13 0.15 0.13 0.11 0.12 0.14 0.12 0.12 0.12 0.13 0.13 0.14 0.16 0.16 0.13 0.11 0.11 0.11 0.11 0.11 0.11
0.12 0.13 0.15 0.15 0.14 0.13 0.13 0.12 0.11 0.11 0.11 0.11 0.11 0.11 0.12 0.13 0.13 0.13 0.14 0.14 0.14 0.15 0.15 0.16 0.15 0.13 0.12 0.14 0.17 0.13 0.12 0.13 0.15 0.16 0.16 0.16 0.15 0.13 0.12 0.12 0.12 0.12 0.12 0.12
0.14 0.15 0.16 0.17 0.17 0.17 0.16 0.15 0.13 0.12 0.11 0.10 0.11 0.11 0.11 0.12 0.12 0.12 0.12 0.13 0.13 0.13 0.13 0.16 0.15 0.13 0.14 0.17 0.20 0.16 0.14 0.15 0.16 0.16 0.17 0.17 0.17 0.16 0.16 0.15 0.14 0.14 0.13 0.13
0.15 0.15 0.16 0.17 0.16 0.17 0.16 0.14 0.13 0.13 0.12 0.11 0.11 0.10 0.09 0.10 0.11 0.11 0.11 0.11 0.12 0.14 0.13 0.12 0.12 0.15 0.19 0.22 0.19 0.16 0.16 0.17 0.17 0.18 0.18 0.18 0.18 0.18 0.18 0.17 0.17 0.17 0.16 0.16
0.15 0.14 0.14 0.14 0.14 0.15 0.14 0.13 0.13 0.13 0.13 0.12 0.11 0.11 0.10 0.10 0.11 0.11 0.11 0.10 0.10 0.11 0.10 0.10 0.13 0.17 0.20 0.19 0.16 0.15 0.17 0.18 0.18 0.18 0.18 0.18 0.19 0.19 0.20 0.20 0.19 0.18 0.18 0.17
0.12 0.11 0.11 0.11 0.12 0.12 0.12 0.13 0.13 0.12 0.11 0.11 0.10 0.10 0.10 0.10 0.10 0.10 0.09 0.10 0.11 0.11 0.10 0.11 0.14 0.16 0.17 0.14 0.14 0.15 0.16 0.17 0.18 0.18 0.19 0.20 0.20 0.20 0.20 0.19 0.18 0.16 0.16 0.17
0.09 0.09 0.09 0.09 0.09 0.09 0.10 0.11 0.11 0.11 0.11 0.10 0.09 0.09 0.09 0.09 0.09 0.09 0.09 0.09 0.09 0.10 0.09 0.10 0.12 0.14 0.14 0.12 0.13 0.14 0.15 0.16 0.18 0.19 0.19 0.19 0.19 0.19 0.18 0.18 0.17 0.16 0.15 0.14
0.06 0.06 0.06 0.07 0.07 0.07 0.08 0.10 0.12 0.11 0.09 0.10 0.10 0.09 0.08 0.08 0.08 0.08 0.09 0.09 0.10 0.11 0.09 0.09 0.11 0.13 0.13 0.12 0.13 0.14 0.14 0.15 0.16 0.15 0.15 0.16 0.17 0.18 0.17 0.16 0.15 0.15 0.14 0.12
0.04 0.04 0.04 0.05 0.06 0.06 0.07 0.08 0.10 0.12 0.11 0.10 0.09 0.09 0.08 0.08 0.08 0.09 0.09 0.09 0.10 0.10 0.10 0.10 0.11 0.12 0.13 0.13 0.13 0.13 0.13 0.13 0.13 0.13 0.14 0.15 0.15 0.16 0.15 0.15 0.14 0.13 0.13 0.12

GEFSNGP_prec_meanprecacc_126.txt.gz
Total_Precipitation_Accumulation
0.51 0.40 0.44 0.45 0.35 0.43 0.70 0.69 0.69 0.43 0.31 0.31 0.28 0.24 0.18 0.17 0.16 0.15 0.14 0.12 0.13 0.15 0.16 0.16 0.14 0.13 0.13 0.16 0.20 0.21 0.21 0.26 0.28 0.30 0.34 0.33 0.34 0.34 0.34 0.33 0.34 0.37 0.37 0.38
0.52 0.32 0.32 0.35 0.28 0.33 0.42 0.44 0.48 0.39 0.34 0.25 0.24 0.20 0.19 0.19 0.16 0.13 0.12 0.11 0.12 0.13 0.15 0.15 0.14 0.14 0.12 0.13 0.16 0.17 0.18 0.21 0.23 0.28 0.35 0.36 0.36 0.35 0.34 0.34 0.36 0.39 0.40 0.40
0.46 0.25 0.33 0.38 0.30 0.35 0.38 0.36 0.41 0.44 0.36 0.23 0.22 0.20 0.20 0.20 0.16 0.13 0.12 0.11 0.10 0.11 0.12 0.12 0.11 0.14 0.15 0.14 0.15 0.18 0.18 0.18 0.20 0.27 0.34 0.37 0.40 0.43 0.43 0.42 0.46 0.52 0.55 0.54
0.46 0.33 0.38 0.25 0.19 0.24 0.29 0.32 0.32 0.31 0.24 0.18 0.19 0.20 0.20 0.19 0.16 0.13 0.11 0.10 0.09 0.10 0.10 0.09 0.09 0.11 0.12 0.12 0.15 0.21 0.25 0.26 0.26 0.28 0.35 0.42 0.44 0.47 0.51 0.52 0.58 0.64 0.68 0.66
0.48 0.38 0.23 0.13 0.10 0.16 0.26 0.29 0.20 0.17 0.15 0.12 0.13 0.14 0.14 0.16 0.15 0.14 0.13 0.11 0.10 0.10 0.09 0.08 0.09 0.11 0.12 0.11 0.14 0.21 0.26 0.30 0.29 0.31 0.37 0.44 0.52 0.58 0.60 0.60 0.63 0.66 0.63 0.59
0.47 0.40 0.24 0.13 0.06 0.07 0.20 0.35 0.15 0.11 0.10 0.10 0.11 0.17 0.15 0.14 0.14 0.12 0.12 0.14 0.13 0.12 0.11 0.10 0.12 0.15 0.18 0.19 0.22 0.26 0.26 0.31 0.32 0.35 0.40 0.46 0.52 0.60 0.65 0.65 0.62 0.57 0.53 0.46
0.37 0.33 0.16 0.08 0.04 0.07 0.28 0.41 0.16 0.11 0.10 0.11 0.13 0.14 0.13 0.10 0.09 0.10 0.11 0.14 0.18 0.20 0.20 0.21 0.24 0.25 0.27 0.28 0.29 0.31 0.32 0.36 0.39 0.40 0.44 0.49 0.52 0.52 0.53 0.52 0.47 0.41 0.37 0.32
0.20 0.26 0.17 0.09 0.11 0.18 0.24 0.17 0.12 0.12 0.13 0.16 0.18 0.15 0.12 0.11 0.09 0.10 0.12 0.15 0.19 0.23 0.26 0.28 0.29 0.31 0.32 0.34 0.35 0.35 0.36 0.38 0.40 0.40 0.40 0.38 0.39 0.39 0.36 0.33 0.32 0.28 0.26 0.24
0.14 0.17 0.14 0.12 0.16 0.18 0.18 0.14 0.12 0.12 0.12 0.14 0.20 0.21 0.18 0.15 0.12 0.10 0.11 0.14 0.17 0.20 0.21 0.22 0.27 0.32 0.35 0.36 0.34 0.32 0.34 0.34 0.32 0.30 0.28 0.27 0.26 0.24 0.24 0.24 0.24 0.25 0.24 0.22
0.12 0.12 0.11 0.12 0.14 0.13 0.13 0.12 0.11 0.11 0.12 0.14 0.15 0.19 0.18 0.18 0.16 0.15 0.14 0.12 0.13 0.14 0.15 0.16 0.18 0.22 0.26 0.27 0.26 0.24 0.26 0.24 0.22 0.20 0.21 0.20 0.19 0.17 0.17 0.18 0.18 0.19 0.20 0.19
0.11 0.09 0.08 0.08 0.07 0.07 0.07 0.07 0.08 0.10 0.11 0.12 0.12 0.15 0.18 0.17 0.15 0.15 0.15 0.13 0.11 0.10 0.10 0.11 0.11 0.13 0.16 0.18 0.18 0.18 0.18 0.16 0.15 0.15 0.19 0.21 0.20 0.18 0.19 0.18 0.20 0.20 0.19 0.19
0.13 0.08 0.09 0.08 0.05 0.04 0.04 0.04 0.05 0.07 0.09 0.10 0.10 0.14 0.15 0.14 0.13 0.13 0.15 0.15 0.12 0.10 0.10 0.10 0.10 0.10 0.11 0.14 0.16 0.17 0.16 0.15 0.15 0.13 0.15 0.19 0.22 0.23 0.25 0.26 0.27 0.27 0.25 0.23
0.10 0.07 0.06 0.05 0.04 0.04 0.03 0.03 0.03 0.04 0.06 0.07 0.07 0.09 0.11 0.12 0.13 0.13 0.12 0.12 0.11 0.10 0.10 0.10 0.10 0.11 0.11 0.12 0.14 0.16 0.16 0.16 0.16 0.16 0.16 0.18 0.19 0.20 0.21 0.22 0.24 0.26 0.26 0.25
0.05 0.04 0.04 0.03 0.04 0.04 0.03 0.03 0.03 0.03 0.04 0.05 0.07 0.08 0.08 0.10 0.12 0.13 0.14 0.14 0.13 0.11 0.10 0.10 0.10 0.10 0.09 0.10 0.12 0.14 0.16 0.17 0.16 0.16 0.18 0.19 0.19 0.20 0.19 0.18 0.18 0.18 0.21 0.24
0.04 0.04 0.04 0.03 0.03 0.03 0.04 0.03 0.03 0.04 0.04 0.05 0.06 0.07 0.08 0.10 0.13 0.15 0.14 0.14 0.14 0.12 0.11 0.09 0.10 0.10 0.09 0.08 0.10 0.12 0.14 0.15 0.15 0.16 0.17 0.19 0.20 0.22 0.21 0.18 0.17 0.16 0.16 0.20
0.05 0.04 0.05 0.04 0.04 0.04 0.04 0.04 0.04 0.05 0.06 0.06 0.08 0.09 0.10 0.11 0.14 0.16 0.15 0.14 0.14 0.13 0.11 0.10 0.09 0.08 0.09 0.09 0.10 0.11 0.12 0.15 0.15 0.14 0.16 0.18 0.18 0.20 0.21 0.19 0.17 0.16 0.15 0.14
0.07 0.06 0.06 0.06 0.05 0.05 0.05 0.05 0.05 0.06 0.07 0.07 0.09 0.11 0.11 0.12 0.14 0.16 0.16 0.15 0.15 0.14 0.12 0.10 0.09 0.08 0.08 0.09 0.11 0.12 0.13 0.14 0.16 0.15 0.14 0.16 0.17 0.18 0.20 0.21 0.20 0.17 0.16 0.18
0.08 0.09 0.09 0.09 0.09 0.08 0.07 0.07 0.07 0.07 0.07 0.08 0.08 0.08 0.10 0.12 0.14 0.15 0.15 0.14 0.15 0.15 0.13 0.11 0.11 0.10 0.09 0.10 0.11 0.12 0.13 0.13 0.14 0.14 0.14 0.15 0.17 0.18 0.18 0.18 0.19 0.18 0.16 0.19
0.08 0.11 0.12 0.11 0.10 0.10 0.10 0.09 0.10 0.10 0.09 0.10 0.10 0.11 0.11 0.12 0.12 0.14 0.15 0.15 0.15 0.14 0.14 0.13 0.16 0.13 0.11 0.13 0.15 0.14 0.14 0.14 0.14 0.15 0.15 0.18 0.19 0.16 0.15 0.15 0.16 0.16 0.16 0.16
0.12 0.13 0.15 0.15 0.14 0.13 0.13 0.12 0.11 0.11 0.11 0.11 0.11 0.12 0.12 0.13 0.13 0.13 0.14 0.15 0.15 0.15 0.15 0.16 0.16 0.13 0.13 0.14 0.18 0.14 0.13 0.15 0.16 0.17 0.18 0.18 0.17 0.16 0.15 0.15 0.16 0.15 0.15 0.16
0.14 0.15 0.16 0.17 0.17 0.17 0.17 0.16 0.14 0.13 0.11 0.11 0.11 0.11 0.11 0.12 0.12 0.12 0.13 0.13 0.13 0.13 0.13 0.17 0.15 0.13 0.15 0.18 0.21 0.17 0.15 0.16 0.17 0.18 0.18 0.18 0.19 0.19 0.18 0.18 0.17 0.17 0.16 0.16
0.15 0.15 0.16 0.17 0.16 0.17 0.16 0.14 0.13 0.13 0.12 0.12 0.11 0.10 0.10 0.11 0.11 0.11 0.11 0.11 0.12 0.14 0.13 0.12 0.12 0.16 0.20 0.23 0.20 0.17 0.17 0.19 0.20 0.20 0.20 0.19 0.20 0.20 0.20 0.19 0.20 0.19 0.18 0.18
0.15 0.14 0.14 0.14 0.14 0.15 0.14 0.13 0.13 0.13 0.13 0.12 0.11 0.11 0.11 0.11 0.11 0.11 0.11 0.10 0.10 0.11 0.11 0.10 0.13 0.18 0.22 0.21 0.17 0.17 0.18 0.20 0.20 0.20 0.20 0.20 0.20 0.21 0.22 0.22 0.21 0.20 0.20 0.19
0.12 0.11 0.11 0.11 0.12 0.12 0.12 0.13 0.13 0.12 0.12 0.11 0.10 0.10 0.10 0.10 0.10 0.10 0.09 0.10 0.11 0.11 0.10 0.11 0.15 0.18 0.18 0.16 0.15 0.17 0.18 0.19 0.19 0.20 0.20 0.21 0.21 0.22 0.22 0.21 0.20 0.18 0.18 0.18
0.09 0.09 0.09 0.09 0.09 0.09 0.10 0.11 0.11 0.11 0.11 0.10 0.09 0.09 0.09 0.09 0.10 0.10 0.09 0.09 0.10 0.11 0.09 0.11 0.13 0.15 0.15 0.14 0.14 0.16 0.17 0.17 0.19 0.20 0.20 0.20 0.20 0.20 0.20 0.19 0.19 0.18 0.17 0.16
0.06 0.06 0.06 0.07 0.08 0.08 0.09 0.11 0.12 0.11 0.10 0.10 0.10 0.09 0.08 0.08 0.08 0.08 0.09 0.10 0.10 0.11 0.10 0.10 0.12 0.14 0.14 0.13 0.14 0.15 0.15 0.16 0.16 0.16 0.16 0.17 0.18 0.19 0.18 0.17 0.16 0.16 0.15 0.14
0.04 0.04 0.04 0.05 0.07 0.07 0.07 0.09 0.11 0.12 0.11 0.10 0.10 0.09 0.08 0.08 0.09 0.09 0.10 0.10 0.10 0.11 0.10 0.10 0.11 0.13 0.13 0.14 0.14 0.14 0.13 0.13 0.13 0.14 0.15 0.16 0.16 0.17 0.16 0.16 0.15 0.14 0.14 0.13

GEFSNGP_prec_meanprecacc_132.txt.gz
Total_Precipitation_Accumulation
0.51 0.40 0.44 0.45 0.35 0.43 0.70 0.70 0.70 0.44 0.32 0.32 0.29 0.26 0.21 0.22 0.22 0.21 0.21 0.21 0.24 0.26 0.26 0.26 0.25 0.24 0.25 0.30 0.33 0.35 0.35 0.43 0.45 0.44 0.45 0.48 0.52 0.52 0.51 0.50 0.51 0.52 0.52 0.55
0.52 0.33 0.32 0.35 0.28 0.33 0.42 0.44 0.49 0.39 0.35 0.25 0.24 0.21 0.20 0.21 0.19 0.16 0.16 0.16 0.17 0.20 0.23 0.22 0.21 0.20 0.20 0.21 0.25 0.25 0.27 0.32 0.36 0.39 0.44 0.47 0.49 0.49 0.48 0.48 0.50 0.52 0.53 0.54
0.46 0.25 0.33 0.38 0.30 0.35 0.38 0.36 0.42 0.45 0.37 0.23 0.22 0.20 0.21 0.21 0.17 0.14 0.14 0.13 0.13 0.14 0.17 0.18 0.17 0.19 0.20 0.19 0.22 0.24 0.24 0.25 0.29 0.36 0.41 0.45 0.48 0.52 0.53 0.53 0.59 0.66 0.68 0.67
0.46 0.33 0.38 0.25 0.19 0.24 0.29 0.32 0.33 0.31 0.24 0.18 0.19 0.20 0.20 0.19 0.17 0.14 0.13 0.12 0.12 0.13 0.15 0.13 0.14 0.15 0.16 0.16 0.20 0.27 0.31 0.32 0.32 0.35 0.41 0.47 0.49 0.53 0.59 0.61 0.69 0.78 0.83 0.81
0.48 0.38 0.23 0.13 0.10 0.16 0.26 0.29 0.20 0.18 0.15 0.12 0.13 0.14 0.14 0.16 0.15 0.14 0.14 0.13 0.12 0.13 0.13 0.12 0.13 0.15 0.15 0.15 0.18 0.25 0.31 0.34 0.33 0.35 0.41 0.49 0.56 0.62 0.66 0.67 0.73 0.78 0.78 0.74
0.47 0.40 0.24 0.13 0.06 0.07 0.20 0.35 0.15 0.11 0.10 0.10 0.11 0.17 0.16 0.14 0.15 0.12 0.12 0.16 0.15 0.14 0.13 0.13 0.15 0.17 0.20 0.21 0.24 0.28 0.30 0.34 0.35 0.37 0.43 0.49 0.56 0.64 0.70 0.70 0.69 0.68 0.66 0.60
0.37 0.33 0.16 0.08 0.04 0.07 0.28 0.41 0.16 0.11 0.10 0.11 0.13 0.15 0.13 0.10 0.10 0.10 0.11 0.15 0.19 0.21 0.22 0.23 0.25 0.26 0.27 0.28 0.30 0.32 0.34 0.38 0.41 0.43 0.47 0.51 0.55 0.56 0.58 0.57 0.54 0.51 0.49 0.45
0.20 0.26 0.17 0.09 0.11 0.18 0.24 0.17 0.12 0.12 0.13 0.16 0.18 0.15 0.13 0.11 0.10 0.10 0.12 0.16 0.20 0.24 0.27 0.29 0.30 0.32 0.33 0.34 0.36 0.35 0.37 0.40 0.42 0.43 0.42 0.41 0.42 0.44 0.42 0.40 0.40 0.38 0.38 0.36
0.14 0.17 0.14 0.12 0.16 0.18 0.18 0.14 0.12 0.12 0.12 0.15 0.20 0.21 0.18 0.16 0.12 0.11 0.12 0.15 0.17 0.21 0.21 0.23 0.27 0.33 0.36 0.36 0.35 0.33 0.34 0.35 0.34 0.33 0.31 0.31 0.30 0.30 0.31 0.33 0.34 0.36 0.36 0.34
0.12 0.12 0.11 0.12 0.14 0.13 0.13 0.12 0.11 0.11 0.12 0.14 0.16 0.19 0.19 0.18 0.16 0.16 0.14 0.12 0.13 0.15 0.16 0.17 0.19 0.23 0.27 0.28 0.27 0.24 0.26 0.25 0.25 0.24 0.24 0.24 0.23 0.23 0.24 0.26 0.27 0.29 0.31 0.30
0.11 0.09 0.08 0.08 0.07 0.07 0.07 0.07 0.08 0.10 0.11 0.12 0.12 0.15 0.18 0.17 0.15 0.16 0.15 0.13 0.11 0.10 0.11 0.12 0.13 0.14 0.17 0.19 0.19 0.19 0.19 0.18 0.18 0.18 0.21 0.24 0.24 0.24 0.25 0.26 0.28 0.28 0.27 0.27
0.13 0.08 0.09 0.08 0.05 0.04 0.04 0.04 0.05 0.07 0.09 0.10 0.10 0.14 0.15 0.14 0.13 0.13 0.15 0.15 0.12 0.11 0.11 0.11 0.12 0.12 0.12 0.15 0.18 0.18 0.17 0.17 0.17 0.14 0.17 0.23 0.26 0.26 0.30 0.32 0.34 0.35 0.34 0.30
0.10 0.07 0.06 0.05 0.04 0.04 0.03 0.03 0.03 0.04 0.06 0.07 0.07 0.09 0.11 0.12 0.13 0.13 0.12 0.12 0.11 0.11 0.11 0.11 0.12 0.13 0.13 0.14 0.16 0.17 0.17 0.18 0.19 0.18 0.19 0.22 0.23 0.23 0.24 0.26 0.30 0.34 0.35 0.33
0.05 0.04 0.04 0.03 0.04 0.04 0.03 0.03 0.03 0.03 0.04 0.05 0.07 0.08 0.08 0.10 0.12 0.13 0.14 0.14 0.13 0.11 0.10 0.11 0.11 0.11 0.10 0.11 0.13 0.15 0.18 0.20 0.18 0.18 0.21 0.22 0.23 0.24 0.22 0.21 0.22 0.24 0.28 0.32
0.04 0.04 0.04 0.03 0.03 0.03 0.04 0.03 0.03 0.04 0.04 0.05 0.06 0.07 0.08 0.10 0.13 0.15 0.15 0.14 0.14 0.13 0.11 0.10 0.10 0.10 0.09 0.09 0.10 0.13 0.15 0.16 0.16 0.18 0.20 0.22 0.23 0.26 0.25 0.22 0.22 0.21 0.21 0.25
0.05 0.04 0.05 0.04 0.04 0.04 0.04 0.04 0.04 0.05 0.06 0.06 0.08 0.09 0.10 0.11 0.14 0.16 0.15 0.15 0.14 0.13 0.11 0.10 0.09 0.08 0.09 0.10 0.11 0.12 0.13 0.16 0.17 0.17 0.18 0.20 0.22 0.23 0.25 0.23 0.22 0.21 0.20 0.20
0.07 0.06 0.06 0.06 0.05 0.05 0.05 0.05 0.05 0.06 0.07 0.07 0.09 0.11 0.11 0.12 0.14 0.16 0.16 0.15 0.15 0.14 0.13 0.11 0.09 0.08 0.08 0.10 0.11 0.13 0.14 0.15 0.18 0.17 0.17 0.18 0.20 0.21 0.23 0.25 0.24 0.22 0.21 0.25
0.08 0.09 0.09 0.09 0.09 0.08 0.07 0.07 0.07 0.07 0.07 0.08 0.08 0.08 0.10 0.12 0.14 0.15 0.15 0.15 0.15 0.15 0.13 0.11 0.11 0.10 0.10 0.10 0.12 0.13 0.15 0.15 0.15 0.15 0.16 0.18 0.20 0.20 0.21 0.21 0.22 0.22 0.20 0.24
0.08 0.11 0.12 0.11 0.10 0.10 0.10 0.09 0.10 0.10 0.09 0.10 0.10 0.11 0.11 0.12 0.12 0.14 0.15 0.15 0.15 0.14 0.14 0.13 0.16 0.13 0.11 0.13 0.16 0.14 0.15 0.15 0.16 0.17 0.17 0.21 0.22 0.19 0.18 0.19 0.20 0.21 0.20 0.21
0.12 0.13 0.15 0.15 0.14 0.13 0.13 0.12 0.11 0.11 0.11 0.11 0.11 0.12 0.12 0.13 0.13 0.14 0.14 0.15 0.15 0.15 0.16 0.17 0.16 0.13 0.13 0.14 0.19 0.15 0.14 0.16 0.18 0.19 0.20 0.20 0.20 0.19 0.19 0.19 0.20 0.20 0.20 0.20
0.14 0.15 0.16 0.17 0.17 0.17 0.17 0.16 0.14 0.13 0.11 0.11 0.11 0.11 0.11 0.12 0.12 0.12 0.13 0.13 0.13 0.13 0.13 0.17 0.16 0.14 0.15 0.18 0.22 0.18 0.17 0.18 0.19 0.20 0.21 0.21 0.22 0.22 0.22 0.21 0.21 0.21 0.20 0.20
0.15 0.15 0.16 0.17 0.17 0.17 0.16 0.14 0.13 0.13 0.12 0.12 0.11 0.10 0.10 0.11 0.11 0.11 0.11 0.11 0.12 0.14 0.14 0.12 0.13 0.16 0.21 0.24 0.21 0.19 0.19 0.20 0.22 0.22 0.22 0.21 0.22 0.22 0.23 0.23 0.23 0.22 0.22 0.21
0.15 0.14 0.14 0.14 0.14 0.15 0.15 0.13 0.13 0.13 0.13 0.12 0.11 0.11 0.11 0.11 0.11 0.11 0.11 0.10 0.10 0.12 0.11 0.11 0.14 0.19 0.23 0.22 0.18 0.18 0.20 0.22 0.22 0.22 0.21 0.21 0.22 0.23 0.24 0.24 0.23 0.22 0.22 0.21
0.12 0.11 0.11 0.11 0.12 0.12 0.12 0.13 0.13 0.12 0.12 0.11 0.11 0.10 0.10 0.11 0.11 0.10 0.10 0.11 0.11 0.12 0.11 0.12 0.16 0.18 0.19 0.17 0.16 0.18 0.19 0.20 0.21 0.21 0.21 0.22 0.23 0.23 0.23 0.23 0.22 0.19 0.19 0.20
0.09 0.09 0.09 0.10 0.09 0.09 0.10 0.11 0.11 0.11 0.11 0.11 0.10 0.10 0.10 0.10 0.11 0.11 0.10 0.10 0.10 0.11 0.10 0.11 0.14 0.16 0.16 0.14 0.15 0.17 0.18 0.19 0.20 0.21 0.22 0.21 0.21 0.21 0.21 0.21 0.20 0.19 0.18 0.17
0.06 0.06 0.07 0.07 0.08 0.09 0.10 0.12 0.13 0.12 0.10 0.11 0.10 0.09 0.08 0.08 0.08 0.09 0.10 0.10 0.11 0.12 0.10 0.10 0.12 0.14 0.14 0.14 0.15 0.16 0.16 0.17 0.18 0.17 0.17 0.18 0.19 0.20 0.19 0.18 0.17 0.17 0.16 0.15
0.04 0.04 0.05 0.06 0.07 0.08 0.08 0.09 0.11 0.13 0.12 0.11 0.10 0.10 0.09 0.09 0.09 0.10 0.10 0.10 0.11 0.11 0.10 0.11 0.12 0.13 0.14 0.14 0.15 0.15 0.14 0.14 0.14 0.15 0.16 0.17 0.17 0.18 0.17 0.17 0.17 0.15 0.15 0.14